Tracking 30918 objects as of 2-Jul-2025
HD Live streaming from Space Station
objects crossing your sky now

COSMOS 2251 DEB

Track COSMOS 2251 DEB now!
10-day predictions


NORAD ID: 34057
Int'l Code: 1993-036JU
Perigee: 216.2 km
Apogee: 242.2 km
Inclination: 74.0 °
Period: 88.9 minutes
Semi major axis: 6600 km
RCS: 0.092 m2 (small)
Launch date: June 16, 1993
Source: Commonwealth of Independent States (former USSR) (CIS)
Launch site: PLESETSK MISSILE AND SPACE COMPLEX (PKMTR)

Note: This is SATELLITE DEBRIS
Your satellite tracking list
Your tracking list is empty




NASA's NSSDC Master Catalog

Two Line Element Set (TLE):
1 34057U 93036JU  25180.75094721  .09295849  19405-5  50441-2 0  9997
2 34057  73.9664 240.1155 0019708 292.0947  67.8208 16.19091416868542
Source of the keplerian elements: AFSPC